GPS III SV07

operational
NORAD ID: 62339 Int'l Des: 2024-242 Owner: SFSSC Country: US Constellation: GPS
MEOCIRCULARGNSS

Über GPS III SV07

Beschreibung wird geladen...

Live-Position

3D-Globus wird geladen...

Nächste Überflüge

Höhenverlauf

Altitude vs Time

uPlot chart will show altitude changes over time

Zweizeiliger Elementsatz

1 62339U 24242A 25296.52197701 -.00000088 00000-0 00000-0 0 9990
2 62339 54.9381 343.7761 0009556 342.0018 18.2470 2.00566957 6513
Epoch: 23. Okt. 2025 • Age: 60 hours

Aktueller Status

Höhe 20158.2 km
Geschwindigkeit 3.88 km/s
Subsatellitenpunkt 1.79°N, 56.01°W
Startdatum 17. Dez. 2024
Alter 0.8 years
Typ navigation

Technische Details

Klassifizierung Payload
Masse 4352.00 kg
Trockenmasse 2160.00 kg
Gesamtmasse 4352.00 kg
Länge 3.40 m
Durchmesser 1.80 m
Spannweite 14.00 m
Form Box + 2 pan
Hersteller LMSSD
Bus-Typ A2100
Phasenstatus In Orbit
Besitzer/Staat SFSSC/US

Große Konstellationen

Loading constellations...